Regional Weather Roundup
Issued by NWS

Home | Current Version | Previous Version | Graphics & Text | Print | Product List | Glossary On
Versions: 1 2 3 4 5 6 7 8 9 10 11 12 13 14 15 16 17 18 19 20 21 22 23 24 25 26 27 28
000
ASUS45 KBOI 210810
RWRID

IDAHO REGIONAL WEATHER ROUNDUP
NATIONAL WEATHER SERVICE BOISE ID
200 AM MDT SAT APR 21 2018

NOTE: "FAIR" INDICATES FEW OR NO CLOUDS BELOW 12000 FEET
WITH NO SIGNIFICANT WEATHER AND/OR OBSTRUCTIONS TO VISIBILITY

IDZ012-014-210900-
SOUTHWEST IDAHO


CITY           SKY/WX    TMP DP  RH WIND       PRES   REMARKS
BOISE          CLEAR     50  32  50 SE7       30.12R
CALDWELL       CLEAR     43  32  65 CALM      30.12R
MOUNTAIN HOME  CLEAR     42  27  54 CALM      30.12R
$$

IDZ016-017-210900-
SOUTHCENTRAL IDAHO


CITY           SKY/WX    TMP DP  RH WIND       PRES   REMARKS
BURLEY         CLEAR     45  22  40 SW13      30.14R
JEROME         CLEAR     46  25  43 S8        30.14S
TWIN FALLS     CLEAR     45  25  45 S17       30.15R
$$

IDZ019>023-210900-
SOUTHEAST IDAHO


CITY           SKY/WX    TMP DP  RH WIND       PRES   REMARKS
IDAHO FALLS    CLEAR     41  32  70 SW12      30.15R
POCATELLO      CLEAR     51  24  34 SW17      30.15R
REXBURG          N/A     40  29  64 MISG      30.13R
$$

IDZ006-010-011-018-031-032-210900-
CENTRAL IDAHO MOUNTAINS


CITY           SKY/WX    TMP DP  RH WIND       PRES   REMARKS
MCCALL         CLEAR     34  27  75 E3        30.16R
HAILEY         CLEAR     43  27  52 NW10      30.17R
STANLEY          N/A     28  20  71 CALM      30.22S
SALMON         CLEAR     37  29  72 W3        30.15R
CHALLIS        CLEAR     40  21  46 SW3       30.16R
$$

IDZ002-004-006-007-026-210900-
NORTHERN IDAHO


CITY           SKY/WX    TMP DP  RH WIND       PRES   REMARKS
LEWISTON       MOCLDY    53  41  63 CALM      30.11S
LOWELL           N/A     42  38  85 N3        30.19R
COEUR D`ALENE  CLOUDY    48  37  65 SE5       30.09S
MULLAN PASS    CLEAR     37  29  72 VRB5      30.12S WCI  33
$$




USA.gov is the U.S. government's official web portal to all federal, state and local government web resources and services.